Find Starlink 2140

NORAD ID: 47730 Int'l Des: 2021-017 Owner: SPXS Country: US Constellation: starlink operational
LEOCIRCULARSTARLINK_TYPE

リアルタイム位置

3D地球を読み込み中...

Starlink 2140について

説明を読み込み中...

次回通過

Passes for default location (London). Set your location on the main map for personalized predictions.

高度履歴

Loading altitude history...

軌道要素

1 47730U 21017J 26123.86454285 -.00001785 00000-0 -45776-4 0 9994
2 47730 53.1602 320.4473 0001255 91.9016 268.2129 15.31696808286106
Epoch: May 3, 2026 • Age: 6 hours

現在のステータス

高度 486.5 km
速度 7.62 km/s
衛星直下点 -44.49°S, 9°E
打ち上げ日 Mar 4, 2021
運用期間 5.1 years
タイプ internet

技術仕様

分類 Payload
質量 260.00 kg
乾燥質量 248.00 kg
総質量 260.00 kg
長さ 0.20 m
直径 2.80 m
スパン 9.00 m
形状 Box + pan
製造者 SPXS
バスタイプ Starlink
フェーズステータス In Orbit
所有者/国 SPXS/US

Most Searched